HC

 

 

Hoosier Classic - Hand Inventory

Station: INVENTORY - T Race

Distance: 1 Miles

Release: 22-Sep-2022 10:00

Weather Release:    Arrival:

Wind at Release:     Wind at Arrival:

Temp at Release: °    Temp at Arrival: °

Lofts: 709

Birds: 2615

Clocked: 2613

Good Luck to Everyone!
Drops Pos Breeder Pigeon Name Color Sex Ent Arrival Speed To Win Elg PdKOLCGoldPlatinum
1 Harper Family Loft - CA 4604-AU22-ARPU Johnson BB C 1 10:36:36.72 48.072 00:00:00 Missing
2 Key/Wilson Team - MO 2304-AU22-NERP BCH C 1 10:37:20.89 47.124 00:00:44 Missing
3 Sam/Steve Snickers - IL 0274-AU22-YOUN BB C 1 10:37:34.68 46.836 00:00:58 Missing
4 Zou Loft - MA 26352-AU22-ARPU BB H 1 10:37:41.30 46.699 00:01:05 Missing
5 Jelena Novakovic - IL 4457-IF22-FOYS BB C 1 10:37:48.30 46.555 00:01:12 Missing
6 Da-Dong - WI 1603-AU22-RAC SPL C 1 10:37:56.82 46.380 00:01:20 Missing
7 Kora Loft - IN 1618-AU22-DEF BCSP H 1 10:38:04.33 46.228 00:01:28 Missing
8 Monte Vista Loft - CO 0405-AU22-MVL BB H 1 10:38:16.83 45.976 00:01:40 Missing
9 Chen Loft - PA 0863-AU22-TFC 41 - 1718 BCH H 1 10:38:18.79 45.937 00:01:42 Missing
10 123 Bird Love to Fly Loft - CA 0209-AU22-VIP Above The Clouds BB H 1 10:38:30.93 45.696 00:01:54 Missing
11 Boot Camp Loft - UT 22630-AU22-RMR BB H 1 10:38:42.94 45.460 00:02:06 Missing
12 0 Dream Team Loft - TX 21713-AU22-FOYS Air Express CHSP C 1 10:38:46.01 45.400 00:02:09 Missing
13 Gordon And Paul - ON 17364-CU22-CU BLK H 1 10:38:50.01 45.322 00:02:13 Missing
14 House Of Paine - CA 0718-AU22-HOUS HOP444xCici259 BCWF H 1 10:38:52.14 45.280 00:02:15 Missing
15 Sam/Bob/Ashley - IL 0290-AU22-YOUN BLK H 1 10:38:59.71 45.134 00:02:23 Missing
16 Nicolas Loft - FL 23574-AU22-ARPU BCH C 1 10:39:01.56 45.098 00:02:25 Missing
17 Sam Sean - IL 0287-AU22-YOUN BCH H 1 10:39:06.56 45.002 00:02:30 Missing
18 Sam Sean - IL 0249-AU22-YOUN BWF H 2 10:39:09.53 44.945 00:02:33 Missing
19 Jax Zhao - FL 13719-AU22-AA DCH H 1 10:39:41.70 44.338 00:03:05 Missing
20 Grand Slam Racing Loft - TX 16723-AU22-AA TENTIL 7245 X MSRL 1335 BB H 1 10:39:49.78 44.188 00:03:13 Missing
21 America's Dream Loft - IL 0339-AU22-ADL DCH H 1 10:40:02.73 43.950 00:03:26 Missing
22 Schillings - IN 95602-AU22-ARPU BB H 1 10:40:09.87 43.820 00:03:33 Missing
23 Jsrl - CA 0034-AU22-JSRL BB C 1 10:40:12.83 43.766 00:03:36 Missing
24 Rabi Loft - FL 2864-AU22-SAR Súper 21 GRIZ H 1 10:40:45.79 43.176 00:04:09 Missing
25 Mesopotamia Loft - CA 0200-AU22-SD BB C 1 10:40:51.31 43.079 00:04:15 Missing
26 Just4fun - IL 1615-AU22-VK BB C 1 10:40:57.97 42.962 00:04:21 Missing
27 Hoosier Facebook Syndicate 3 - IN 1965-AU22-VK BB H 1 10:41:04.62 42.846 00:04:28 Missing
28 Bill Bodzianowski - IL 0257-AU22-HOBO BB C 1 10:41:11.91 42.720 00:04:35 Missing
29 Gralik-Spisak - IN 0704-AU22-MCI BWF H 1 10:41:20.40 42.574 00:04:44 Missing
30 Nanez Family Loft - WI 0733-IF22-R RCH H 1 10:41:31.49 42.384 00:04:55 Missing
31 Nanez Family Loft - WI 0744-AU22-R BB C 2 10:41:34.36 42.336 00:04:58 Missing
32 Team Sullivan - CA 40396-AU22-JEDD CHOC C 1 10:41:49.13 42.086 00:05:12 Missing
33 Super79 - CT 21150-AU22-ARPU BBPD H 1 10:41:50.05 42.071 00:05:13 Missing
34 Brandon Puentes - Winning Drop Kit 2 - FL 0346-AU22-AZTE BCSP H 1 10:41:53.61 42.011 00:05:17 Missing
35 LmJustin - FL 0262-AU22-TORO BCH H 1 10:42:32.32 41.374 00:05:56 Missing
36 JAZZY LOFT - FL 0213-AU22-JAZZ High Voltage BWF C 1 10:42:34.32 41.342 00:05:58 Missing
37 YANDY FAMILY LOFT - FL 0241-AU22-GREE BB H 1 10:42:44.96 41.170 00:06:08 Missing
38 Valeron & Son Loft - FL 3801-AU22-AA BCH H 1 10:42:53.96 41.026 00:06:17 Missing
39 Maydis Loft - NJ 0416-IF22-USA Untamed Force BBWF C 1 10:42:55.95 40.995 00:06:19 Missing
40 Rodriguez Loft - TX 22666-AU22-WIN 5471 (#2)-18459 (APO) BB H 1 10:43:02.28 40.894 00:06:26 Missing
41 Grand Slam Racing Loft - TX 0028-AU22-SCHI Tom Schilling BCH H 2 10:43:07.04 40.819 00:06:30 Missing
42 BJS Loft - CA 0207-AU22-BON BB H 1 10:43:36.30 40.362 00:07:00 Missing
43 Bob Long - KY 2303-AU22-COV DCH H 1 10:43:42.88 40.261 00:07:06 Missing
44 Stelling Loft - NM 0033-AU22-JHS BB C 1 10:43:47.34 40.193 00:07:11 Missing
45 Jennifer Rankin - TX 22084-AU22-APC BB C 1 10:43:59.02 40.015 00:07:22 Missing
46 LUCKY 13 - CA 0013-AU22-JEDD BAKERS DOZEN BBWF H 1 10:44:04.54 39.931 00:07:28 Missing
47 Sals Loft & Sons - UT 0389-AU22-SALS BBWF H 1 10:44:07.41 39.888 00:07:31 Missing
48 Lindbergh Flyers - MO 2152-AU22-NERP BBPD H 1 10:44:10.18 39.846 00:07:33 Missing
49 Lillie Romero - CA 2273-AU22-LNC AFORTUNADA BB H 1 10:44:15.48 39.767 00:07:39 Missing
50 Aladdin Loft - MN 0028-AU22-ALI Born To Do It BCH C 1 10:44:24.39 39.634 00:07:48 Missing
51 Singh-Sathya - CA 2251-AU22-SING BB H 1 10:44:26.53 39.602 00:07:50 Missing
52 Jax Zhao - FL 42984-AU22-AA BWF C 2 10:44:30.20 39.548 00:07:53 Missing
53 Bob Barker - IN 0301-AU22-SBL BB C 1 10:44:48.40 39.280 00:08:12 Missing
54 Super79 - CT 21135-AU22-ARPU BCH C 2 10:44:54.77 39.187 00:08:18 Missing
55 Si Se Puede Farm - TX 30350-AU22-AA BB H 1 10:45:02.20 39.079 00:08:26 Missing
56 Bootsie's Loft - CT 1003-IF22-CC Charly BB H 1 10:45:08.52 38.988 00:08:32 Yes
57 Rolf Berger - GER 0640-DV22-0496 DCH C 1 10:45:10.54 38.959 00:08:34 Missing
58 OscarSandor - FL 0014-AU22-OSCA BB H 1 10:45:20.37 38.818 00:08:44 Missing
59 Pleasant Task Farm - PA 0008-AU22-PTF BB C 1 10:45:21.26 38.806 00:08:45 Yes
60 Dickerson Loft - TX 0013-AU22-DOUB BB C 1 10:45:31.41 38.661 00:08:55 Yes
61 Nick & Sons - WA 17439-AU22-JEDD BWF C 1 10:45:42.16 38.510 00:09:05 Missing
62 Reignfire Loft - MN 33743-AU22-ARPU Super F-G-2 BCH C 1 10:45:48.44 38.422 00:09:12 Yes
63 Jones Family & Gwp Macaloney - TX 2278-AU22-JFL BCH H 1 10:45:54.76 38.334 00:09:18 Missing
64 Chen Loft - PA 0861-AU22-TFC Super Saiyan - 45 BCH H 2 10:45:56.72 38.306 00:09:20 Missing
65 Dan-Pete - IL 0002-AU22-BFS BCH 0 1 10:45:59.75 38.264 00:09:23 Yes
66 Aztec Loft - DE 0201-AU22-AZTE BWF H 1 10:46:06.83 38.166 00:09:30 Missing
67 Kolvenbag & Son - PA 1617-IF22-KOLV Warlord BCH C 1 10:46:10.66 38.114 00:09:34 Yes
68 Shawnie Murphy - MI 0521-AU22-HMC BB C 1 10:46:23.18 37.942 00:09:46 Missing
69 America's Dream Loft - IL 0221-AU22-RRV DCH H 2 10:46:25.98 37.904 00:09:49 Yes
70 1- VA Lin Loft - GA 20147-AU22-AA 🚀🚀典杯🚀🚀 GRIZ H 1 10:46:32.21 37.820 00:09:55 Missing
71 BKS Trio - IL 0061-AU22-JRF BSP H 1 10:46:37.74 37.745 00:10:01 Yes
72 Denis Loft - FL 6123-IF22-TDM BB C 1 10:46:47.58 37.612 00:10:11 Missing
73 7 Milian Pigeons - FL 0033-AU22-MILI 86 x PB BB C 1 10:46:52.12 37.552 00:10:15 Yes
74 Fleet Washington - DC 2244-AU22-FLEE BB C 1 10:46:56.79 37.489 00:10:20 Missing
75 Xiao Loft - WI 0925-AU22-VK BB H 1 10:47:02.28 37.417 00:10:26 Yes
76 Vasquez Lofts - CA 0189-AU22-VL BB C 1 10:47:12.15 37.286 00:10:35 Yes
77 Prashkov Loft - MA 0021-IF22-PRAS BB H 1 10:47:22.12 37.155 00:10:45 Yes
78 Unassigned-Oneloft - OR 0854-AU22-MCLO BCH H 1 10:47:33.14 37.012 00:10:56 Missing
79 Cherokee Loft - MI 5041-AU22-ARPU BCH C 1 10:48:02.58 36.634 00:11:26 Missing
80 Jinpeng-Jacky xu - CA 21637-AU22-JEDD King-184a BB H 1 10:48:19.80 36.416 00:11:43 Yes
81 Gordon And Paul - ON 17361-CU22-CU BCH H 2 10:48:26.10 36.337 00:11:49 Missing
82 Debbie Ganus - IN 0053-AU22-GFL BB H 1 10:48:48.36 36.061 00:12:12 Yes
83 Vasquez Lofts - CA 0180-AU22-VL BB H 2 10:48:55.46 35.974 00:12:19 Missing
84 Joan Allen - NC 0072-AU22-AFR DCH C 1 10:48:59.49 35.925 00:12:23 Yes
85 Dacia Loft - IL 5308-AU22-CHIC SPL H 1 10:49:08.53 35.814 00:12:32 Missing
86 98 M J Loft - PA 9852-AU22-JIAN Angel Of Mine BWFS H 1 10:49:10.27 35.793 00:12:34 Yes
87 Wolf & Kornelius - DV 0627-DV22-4966 DCSP H 1 10:49:18.46 35.694 00:12:42 Missing
88 Lottery Loft - IL 12101-AU22-CHIC BB C 1 10:49:23.88 35.629 00:12:47 Yes
89 Red Dragon Loft - MI 41761-AU22-ARPU RCH C 1 10:49:30.13 35.554 00:12:53 Missing
90 Gralik-Spisak - IN 0727-AU22-MCI BB H 2 10:49:32.96 35.520 00:12:56 Yes
91 Wanda Enburg - IL 0803-AU22-SPEE Blue Streak BB C 1 10:49:39.28 35.445 00:13:03 Missing
92 Flying D Diva - TX 19521-AU22-ARPU War. Time BLK H 1 10:49:44.76 35.380 00:13:08 Yes
93 Long Island Syndicate - NY 0216-IF22-LUDO VEWF H 1 10:49:52.66 35.286 00:13:16 Missing
94 Wolf & Kornelius - DV 0630-DV22-4966 BCH H 2 10:50:04.41 35.148 00:13:28 Missing
95 Triple J Lofts - 0018-ZA22-JJJ JUJO BB C 1 10:50:08.29 35.103 00:13:32 Yes
96 Goldstar Lofts Of Illinois - IL 2232-AU22-STAR Goldstar 2232 BBSP H 1 10:50:17.87 34.992 00:13:41 Missing
97 Sikon - IL 0038-AU22-SIKO BB H 1 10:50:20.62 34.960 00:13:44 Yes
98 Si Se Puede Farm - TX 30344-AU22-AA BB H 2 10:50:27.59 34.879 00:13:51 Missing
99 98 M J Loft - PA 9803-AU22-JIAN Artic Sun BPD C 2 10:50:33.81 34.808 00:13:57 Missing
100 Pokémon Loft - NY 0509-IF22-SIC DCH H 1 10:50:34.72 34.797 00:13:58 Yes

There are 2613 bird records

Note: These Race Results are unofficial and subject to change until verified by the Race Committee and declared final.